Location: Laterina
(43.5167°N, 11.7167°E)
Time: 16:19:25
(UTC+00:00)

USA 116 - Pass Details

Date: 24 September 2020
Orbit: 405 x 834 km, 97.9° (Epoch: 18 November)

Event Time Altitude Azimuth Distance (km) Brightness Sun altitude
Rises 17:55:19 0° 14° (NNE) 2,564 7.1 -9.7°
Reaches altitude 10° 17:57:17 10° 17° (NNE) 1,732 6.2 -10.1°
Maximum altitude 18:01:01 75° 103° (ESE) 576 3.6 -10.7°
Drops below altitude 10° 18:05:13 10° 189° (S) 1,948 6.5 -11.5°
Sets 18:07:32 0° 191° (S) 2,919 7.4 -11.9°
